Location: Beetenbrück
(52.8113°N, 9.5946°E)
Time: 22:46:47
(UTC+00:00)

NOSS 3-4 (C) - Pass Details

Date: 14 April 2026
Orbit: 773 x 1438 km, 63.4° (Epoch: 26 December)

Event Time Altitude Azimuth Distance (km) Brightness Sun altitude
Rises 21:42:07 0° 241° (WSW) 3,271 6.3 -24.0°
Reaches altitude 10° 21:44:27 10° 245° (WSW) 2,378 5.6 -24.2°
Maximum altitude 21:49:49 59° 326° (NW) 989 3.7 -24.5°
Drops below altitude 10° 21:55:55 10° 46° (NE) 2,698 6.0 -24.9°
Sets 21:58:44 0° 50° (NE) 3,750 6.8 -25.0°
